Regional Weather Roundup
Issued by NWS

Home | Current Version | Previous Version | Text Only | Print | Product List | Glossary Off
Versions: 1 2 3 4 5 6 7 8 9 10 11 12 13 14 15 16 17 18 19 20 21 22 23 24 25 26 27 28 29 30 31 32 33 34 35 36 37 38 39 40 41 42 43 44 45 46 47 48 49 50

000
ASUS43 KIND 221909
RWRIN

WEATHER ROUNDUP FOR INDIANA
NATIONAL WEATHER SERVICE INDIANAPOLIS IN
200 PM EST MON DEC 22 2014

NOTE: "FAIR" INDICATES FEW OR NO CLOUDS BELOW 12,000 FEET WITH NO
SIGNIFICANT WEATHER AND/OR OBSTRUCTIONS TO VISIBILITY.

* - STATION DOES NOT REPORT WEATHER SUCH AS PRECIPITATION OR FOG.

+ - STATION NOT QUALITY CONTROLLED BY THE NATIONAL WEATHER SERVICE.
    USE DATA WITH CAUTION...ESPECIALLY DEWPOINT AND RELATIVE
    HUMIDITY OBSERVATIONS.

INZ001>003-010>013-019-020-222000-
NORTHWEST INDIANA

CITY           SKY/WX    TMP DP  RH WIND       PRES   REMARKS
GARY /AIRPORT/ CLOUDY    39  32  75 E12       29.78F FOG
KNOX *+        CLOUDY    37  31  77 SE14      29.80F
LA PORTE +     DRIZZLE   38  34  85 SE9       29.81F
MICHIGAN CITY+ DRIZZLE   36  28  75 SE6       29.80F
MONTICELLO +   CLOUDY    37  36  94 SE8       29.79F FOG
RENSSELAER +   CLOUDY    37  37 100 E12       29.76F FOG
VALPARAISO     LGT RAIN  37  34  89 E14       29.78F FOG

$$

LMZ046-743>745-222000-
SOUTHERN LAKE MICHIGAN

STATION/POSITION TIME  TEMP WIND        PRES
                       AIR  DIR/SP/G
                 (UTC) (F)  (DEG/KT/KT) (MB)

$$

INZ004-005-014>016-021>024-222000-
NORTH CENTRAL INDIANA

CITY           SKY/WX    TMP DP  RH WIND       PRES   REMARKS
ELKHART        LGT RAIN  36  28  75 SE8       29.86F
GOSHEN         CLOUDY    36  30  79 SE12      29.85F
LOGANSPORT +   LGT RAIN  36  34  93 E12       29.82F
ROCHESTER +    DRIZZLE   37  36  93 E8        29.83F
SOUTH BEND     CLOUDY    36  31  82 SE13      29.84F HAZE
WARSAW +       CLOUDY    36  32  87 SE9       29.85F HAZE

$$

INZ006>009-017-018-025>027-222000-
NORTHEAST INDIANA

CITY           SKY/WX    TMP DP  RH WIND       PRES   REMARKS
ANGOLA *+      MOSUNNY   36  28  75 SE9       29.88F
AUBURN +       CLOUDY    34  30  86 E6        29.90F HAZE    WCI  29
FORT WAYNE     CLOUDY    36  31  82 E9        29.89F
HUNTINGTON +   DRIZZLE   36  32  88 E6        29.85F

$$

INZ028-029-035-036-043>045-051>053-222000-
WEST CENTRAL INDIANA

CITY           SKY/WX    TMP DP  RH WIND       PRES   REMARKS
LAFAYETTE      CLOUDY    40  37  89 SE13      29.78F FOG
TERRE HAUTE    CLOUDY    46  40  79 SE14G20   29.76F

$$

INZ030>032-037>040-046>048-054>057-064-065-222000-
CENTRAL INDIANA

CITY           SKY/WX    TMP DP  RH WIND       PRES   REMARKS
CP ATTERBURY + CLOUDY    45  36  70 MISG      29.83F
COLUMBUS       PTSUNNY   48  41  76 S12       29.82F
FRANKFORT +    CLOUDY    39  39 100 E10       29.81F FOG
INDIANAPOLIS   CLOUDY    41  35  79 SE9       29.80F
-EAGLE CREEK   CLOUDY    41  35  79 SE7       29.81F
KOKOMO *+      CLOUDY    37  34  87 SE9       29.83F
MARION +       CLOUDY    38  33  82 SE8       29.84F
MT COMFORT *+  CLOUDY    41  32  70 SE7       29.83F
SHELBYVILLE    CLOUDY    45  37  73 SE8       29.81F
ZIONSVILLE +   CLOUDY    40  34  79 SE7       29.82F

$$

INZ033-034-041-042-049-050-058-059-222000-
EAST CENTRAL INDIANA

CITY           SKY/WX    TMP DP  RH WIND       PRES   REMARKS
MUNCIE         CLOUDY    40  34  79 SE10      29.84F

$$

INZ060-061-067>069-081>083-085>088-222000-
SOUTHWEST INDIANA

CITY           SKY/WX    TMP DP  RH WIND       PRES   REMARKS
EVANSVILLE     CLOUDY    51  44  77 SE9       29.76F
HUNTINGBURG *+ CLOUDY    50  43  76 SE15      29.77F
WASHINGTON +   CLOUDY    48  41  77 SE14      29.76F

$$

INZ062-063-066-070>080-084-089>092-222000-
SOUTH CENTRAL AND SOUTHEAST INDIANA

CITY           SKY/WX    TMP DP  RH WIND       PRES   REMARKS
BLOOMINGTON    CLOUDY    44  38  79 SE7       29.79F
NORTH VERNON + CLOUDY    50  41  71 SE6       29.83

$$




USA.gov is the U.S. government's official web portal to all federal, state and local government web resources and services.